Regional Weather Roundup
Issued by NWS

Home | Current Version | Previous Version | Graphics & Text | Print | Product List | Glossary On
Versions: 1 2 3 4 5 6 7 8 9 10 11 12 13 14 15 16 17 18 19 20 21 22 23 24 25 26 27 28 29 30 31 32 33 34 35 36 37 38 39 40 41 42 43 44 45 46 47 48 49 50
000
ASUS45 KTFX 191110
RWRMT
MONTANA REGIONAL WEATHER ROUNDUP
NATIONAL WEATHER SERVICE GREAT FALLS MT
400 AM MST FRI JAN 19 2018

NOTE: "FAIR" INDICATES FEW OR NO CLOUDS BELOW 12000 FEET WITH NO
SIGNIFICANT WEATHER AND/OR OBSTRUCTIONS TO VISIBILITY.

MTZ001>007-043-191200-
WEST OF THE DIVIDE

CITY           SKY/WX    TMP DP  RH WIND       PRES   REMARKS
KALISPELL      CLOUDY    29  29 100 SW5       29.72F
MISSOULA       CLOUDY    33  31  92 E3        29.75S FOG
BUTTE          CLOUDY    31  28  89 NE5       29.68F
MULLAN PASS    CLOUDY    23  23 100 VRB3      29.67F
ANACONDA         N/A     30  30 100 CALM      29.70F
DEER LODGE       N/A     30  30 100 CALM      29.73R
EUREKA           N/A     32  28  86 MISG      29.72F
HAMILTON         N/A     32  32 100 CALM        N/A
PLAINS           N/A     33  30  89 CALM      29.79S VSB 0
RONAN            N/A     34  32  93 SE6       29.75F WCI  29
$$

MTZ008-052>055-191200-
SOUTHWEST MONTANA

CITY           SKY/WX    TMP DP  RH WIND       PRES   REMARKS
BOZEMAN        CLOUDY    33  32  96 SE9       29.70F WCI  25
DILLON         CLOUDY    29  29 100 SW12      29.67F WCI  19
ENNIS          CLOUDY    37  30  75 SW5G13    29.75F
W YELLOWSTONE  SNOW      32  32 100 SW20G25   29.69F VSB 1/2 WCI  20
THREE FORKS      N/A     33  32  96 NE3       29.73F
TWIN BRIDGES     N/A     35  29  79 CALM      29.72
$$

MTZ009-010-012-014-046-048-049-054-191200-
EAST SLOPES AND CENTRAL MONTANA

CITY           SKY/WX    TMP DP  RH WIND       PRES   REMARKS
CUT BANK       FAIR      33  24  69 W15       29.60F WCI  23
GREAT FALLS    CLOUDY    34  30  85 SW8       29.63F WCI  27
MALMSTROM AFB  CLOUDY    36  32  84 SW13      29.63F WCI  28
HELENA         CLOUDY    35  33  92 CALM      29.69F
AUGUSTA        FAIR      35  25  68 W20       29.62S WCI  23
BOWMANS CRNR   FAIR      31  30  95 S14       29.61F WCI  21
CHOTEAU          N/A     37  21  52 S5        29.62F
CONRAD           N/A     30  27  89 S3        29.66
FAIRFIELD      MOCLDY    37  25  63 SW13      29.62S WCI  28
POWER          MOCLDY    34  28  80 W6        29.62R WCI  29
RAYNESFORD     CLOUDY    38  30  74 CALM      29.65R
ULM            CLOUDY    35  31  88 S6        29.64S WCI  29
WHITE SULPHUR    N/A     32  32 100 S7        29.66F FOG     WCI  26
$$

MTZ011-013-016-021-045-047-050-051-191200-
NORTH CENTRAL MONTANA

CITY           SKY/WX    TMP DP  RH WIND       PRES   REMARKS
HAVRE          FAIR      36  32  85 SW12      29.63S WCI  28
LEWISTOWN      CLOUDY    32  32 100 SW10      29.65F WCI  24
N BAR RANCH    CLOUDY    34  32  93 SW8       29.67R WCI  27
CHINOOK          N/A     36  30  80 W6        29.62F WCI  31
DENTON         MOCLDY    35  32  89 MISG      29.59F
GEYSER         MOCLDY    34  33  94 W13       29.64F WCI  25
GRASS RANGE    MOCLDY    35  33  91 SW14      29.60F WCI  26
STANFORD       LGT RAIN  34  33  96 SW8       29.66R WCI  27
WINIFRED       CLOUDY    36  32  87 W12       29.60F WCI  28
$$

MTZ017>020-022>027-061-062-191200-
NORTHEAST MONTANA

CITY           SKY/WX    TMP DP  RH WIND       PRES   REMARKS
GLASGOW        CLOUDY    38  32  79 W9        29.61R WCI  31
GLENDIVE       LGT RAIN  37  32  82 NW15      29.59F WCI  28
JORDAN           N/A     37  31  78 NW9       29.64R WCI  30
MALTA          PTCLDY    37  30  75 W10       29.60F WCI  30
SIDNEY         CLOUDY    39  31  72 W20       29.57R WCI  29
WOLF POINT     CLOUDY    39  32  76 W9        29.58F
PLENTYWOOD       N/A     37  30  75 W10G16    29.52S WCI  30
POPLAR           N/A     37  30  75 SW5       29.57F
SCOBEY           N/A     37  26  65 W15       29.54F WCI  28
$$

MTZ028>42-056>058-191200-
SOUTHCENTRAL AND SOUTHEAST MONTANA

CITY           SKY/WX    TMP DP  RH WIND       PRES   REMARKS
BAKER          FAIR      36  29  75 NW13      29.60R WCI  27
BILLINGS       RAIN      36  35  96 S8        29.69R WCI  30
LIVINGSTON     MIX PCPN  34  34 100 W6        29.68F WCI  29
MILES CITY     CLOUDY    32  28  85 NW8       29.64R WCI  25
BIG TIMBER     CLOUDY    36  34  93 SW18      29.70R WCI  25
EKALAKA          N/A     36  26  67 W2        29.61
FORSYTH          N/A     34  30  86 SW7       29.66R WCI  28
HARLOWTON      CLOUDY    35  33  92 NW8       29.68R WCI  28
LAUREL           N/A     36  34  93 S9        29.71R WCI  29
ROUNDUP          N/A     34  30  85 SW7       29.63R WCI  28
$$

REGIONAL REPORTS...DAKOTAS

CITY           SKY/WX    TMP DP  RH WIND       PRES   REMARKS
WILLISTON      CLOUDY    41  30  65 W12       29.54F
MINOT          FAIR      41  31  67 SW18      29.49S
DICKINSON      FAIR      32  25  75 W8        29.54S WCI  25
BEACH          CLOUDY    39  28  65 NW18      29.63R WCI  30
CROSBY         MOCLDY    39  30  70 W12       29.49F WCI  32
TIOGA          CLOUDY    37  34  87 W16       29.50F WCI  28
WATFORD CITY   FAIR      37  32  81 W8        29.56F WCI  31
BISMARCK       FAIR      24  22  91 CALM      29.54F
GRAND FORKS    FAIR      28  25  88 SW6       29.47S WCI  22
FARGO          FAIR      31  26  82 S10         N/A  WCI  22
BUFFALO SD       N/A     32  25  75 NW3       29.50R
RAPID CITY     FAIR      37  27  67 CALM      29.56F
$$

REGIONAL REPORTS...WYOMING/IDAHO/WASHINGTON

CITY           SKY/WX    TMP DP  RH WIND       PRES   REMARKS
GILLETTE       FAIR      43  26  51 S24G33    29.59F
SHERIDAN       MOCLDY    40  30  67 NW26G33   29.64R
BUFFALO WY     FAIR      51  25  36 W17       29.60S
CODY           FAIR      36  30  79 N15       29.68R WCI  27
YELLOWSTONE LA   N/A     31  29  92 VRB5      29.74F
IDAHO FALLS    LGT RAIN  36  33  89 SW20G30   29.78R WCI  25
SALMON         CLOUDY    33  33 100 SE3       29.72F
BOISE          CLOUDY    39  37  92 NE5       29.82F
SPOKANE        CLOUDY    34  33  96 SW12      29.79R WCI  25
$$

REGIONAL REPORTS...ALBERTA

CITY           SKY/WX    TMP DP  RH WIND       PRES   REMARKS
CALGARY        PTCLDY    27  10  50 SW5       29.50S
CARDSTON         N/A     34  19  55 W9G18       N/A  WCI  26
EDMONTON       CLOUDY    30  18  59 SW9       29.43R WCI  22
FORT MCMURRAY  CLOUDY    34  30  86 W7        29.27R WCI  28
HIGH LEVEL     LGT SNOW  23  21  93 N13       29.34R WCI  11
LETHBRIDGE     CLEAR     36  19  51 W30G39    29.53R WCI  22
LLOYDMINSTER   CLOUDY    32  27  80 W15       29.37S WCI  22
MEDICINE HAT   CLEAR     34  25  69 SW12G18   29.55S WCI  25
MILK RIVER       N/A     34  23  64 W25G32      N/A  WCI  21
ONEFOUR          N/A     28  21  74 W6          N/A  WCI  22
PEACE RIVER    CLOUDY    32  27  80 W2        29.37R
PINCHER CREEK  CLEAR     30  21  69 SW21      29.59F WCI  17
WATERTON GATE    N/A     30  25  80 SW20G28     N/A  WCI  18
$$

REGIONAL REPORTS...SASKATCHEWAN

CITY           SKY/WX    TMP DP  RH WIND       PRES   REMARKS
CORONACH         N/A     36  30  80 W16G22      N/A  WCI  26
CYPRESS HILLS    N/A     32  14  47 W15G23      N/A  WCI  22
ESTEVAN        PTCLDY    37  30  75 W13       29.45F WCI  29
MOOSE JAW        N/A     34  25  69 W17         N/A  WCI  23
PRINCE ALBERT  CLOUDY    28  25  86 W5        29.34R
REGINA         MOCLDY    30  27  86 W13       29.42R WCI  20
ROCKGLEN         N/A     32  27  80 W12         N/A  WCI  23
SASKATOON      CLEAR     25  21  86 W7        29.39R WCI  17
SWIFT CURRENT  PTCLDY    32  25  74 W22G31    29.46S WCI  19
VAL MARIE        N/A     34  27  75 W13         N/A  WCI  25
$$



USA.gov is the U.S. government's official web portal to all federal, state and local government web resources and services.